Temperature
22 23 22 22 21 20 20 20 20 20 19 19 19 18 18 17 17 17 17 17 17 17 17 17 18 18 18 18 17 17 16 16 16 16 15 15 15 14 14 14 14 14 14
22 22 22 21 20 20 19 19 19 19 19 19 18 18 18 17 17 17 17 17 17 17 18 18 18 18 18 18 17 17 16 16 16 16 15 15 14 14 14 14 14 14 14
22 21 21 21 20 19 18 18 18 18 18 18 17 17 17 17 17 17 17 17 17 17 17 18 18 18 18 18 18 17 17 17 16 16 16 15 14 14 14 14 14 14 14
22 21 21 20 20 19 18 17 17 17 17 17 16 16 16 16 16 17 17 17 17 17 17 18 18 18 18 18 18 17 17 17 17 16 16 16 16 15 14 14 13 13 14
22 21 20 20 19 18 17 17 16 16 16 16 16 16 16 15 16 16 16 16 17 17 17 17 17 18 18 18 17 18 18 17 17 17 16 16 16 16 15 14 13 13 13
22 21 20 19 19 18 17 17 16 16 16 15 15 15 15 15 15 15 15 16 16 16 16 16 17 17 17 17 17 17 17 17 17 17 17 16 16 16 16 15 14 13 13
22 21 20 19 19 18 17 17 17 16 16 15 15 15 15 15 15 15 15 15 16 16 16 16 16 17 17 17 17 17 17 17 16 16 16 16 16 16 16 16 14 13 13
22 21 21 20 19 18 18 17 17 16 16 15 15 15 15 15 16 16 15 15 15 15 15 16 16 16 17 17 17 16 16 16 16 16 16 16 16 16 16 16 16 14 13
22 22 21 20 19 19 18 17 17 17 16 15 15 16 16 16 16 16 15 16 16 16 15 15 16 16 16 16 16 16 16 16 16 16 16 16 16 16 16 16 16 16 14
22 21 21 20 19 19 18 17 17 16 16 16 16 16 16 16 16 16 16 16 16 17 16 16 16 16 16 16 16 16 16 16 16 16 16 16 16 16 16 16 16 16 16
22 22 21 20 19 18 18 17 16 16 16 16 16 16 16 16 16 16 16 16 16 16 16 16 16 16 16 16 16 16 16 16 16 16 16 16 16 15 15 15 15 15 15
23 22 21 20 19 18 18 17 16 16 16 16 16 16 16 16 16 16 16 16 16 16 16 16 16 16 16 16 16 16 16 16 16 16 16 16 15 15 15 15 15 15 15
23 22 21 20 20 19 18 17 17 16 16 16 16 16 16 16 16 16 16 16 16 16 16 16 16 16 16 16 16 15 15 15 16 16 16 15 15 14 14 14 15 15 15
23 22 21 20 20 19 19 18 17 17 16 16 16 16 16 16 16 16 16 16 16 16 16 16 16 16 16 15 15 15 15 15 15 15 15 15 15 14 14 14 15 15 15
22 22 22 21 20 20 19 18 17 17 17 16 16 16 16 15 15 16 16 16 16 15 15 15 15 15 15 15 15 15 15 15 15 15 15 15 15 15 14 14 15 15 15
22 22 22 21 21 20 20 19 18 17 17 16 16 15 15 15 15 15 15 15 15 15 15 15 15 15 15 15 15 15 15 15 15 15 15 15 15 15 15 15 15 15 15
22 22 21 20 20 19 19 19 19 18 17 17 16 16 15 15 15 15 15 15 15 15 15 15 15 15 14 14 15 15 15 15 15 15 15 15 15 15 15 15 15 15 15
21 21 20 19 19 18 18 18 18 18 17 17 16 16 15 15 15 15 15 15 15 15 14 14 14 14 14 14 14 15 15 15 15 15 15 15 15 15 15 15 15 15 15
21 20 19 18 17 17 18 18 18 17 17 17 16 16 16 15 15 15 15 15 15 14 14 14 13 13 14 14 14 14 15 15 15 15 14 14 15 15 15 15 15 15 15
20 19 18 17 16 16 16 16 16 16 16 16 16 16 16 15 15 15 14 14 14 14 13 13 13 13 13 13 13 14 14 14 14 14 13 13 14 14 14 14 14 14 15
18 18 17 16 16 15 15 15 15 15 14 15 15 15 15 15 14 14 14 14 13 13 13 13 12 12 13 13 13 13 13 14 14 13 13 13 13 13 13 13 13 14 14
18 16 16 15 15 14 14 14 14 13 13 13 13 14 14 14 13 13 13 13 13 13 13 12 12 12 12 13 13 13 13 13 13 13 13 13 12 13 13 12 12 12 13
16 15 15 14 14 14 14 14 13 13 12 12 12 12 12 13 13 13 13 13 12 12 12 12 12 12 12 12 12 12 13 13 13 13 13 13 13 12 12 12 12 12 12
16 15 14 14 14 14 14 13 13 12 12 12 11 11 11 11 12 12 12 12 12 12 12 12 12 12 12 12 12 12 12 12 12 12 12 12 12 12 12 12 11 11 11
16 15 15 14 14 14 13 13 13 12 12 11 11 11 11 11 11 11 12 12 12 12 12 12 12 12 12 12 12 12 12 12 12 12 12 12 12 12 11 11 11 11 11
16 16 15 14 14 14 14 13 12 12 12 11 11 11 11 11 11 11 11 11 11 11 11 11 12 12 12 12 12 12 12 11 11 11 11 11 11 11 11 11 10 10 10
Wind_Speed
6 5 5 5 7 7 7 8 8 6 6 5 5 5 5 4 3 4 7 9 13 14 8 8 7 7 8 8 8 5 5 3 3 5 4 5 5 5 4 3 4 6 10
6 5 5 4 5 6 6 6 7 6 5 4 3 2 2 2 2 3 4 8 10 11 10 10 8 8 7 9 8 5 4 3 4 5 5 3 4 4 4 3 5 6 9
11 9 6 4 5 6 8 8 8 7 6 4 2 1 2 2 2 2 3 5 10 11 11 8 8 8 8 9 8 7 7 5 3 3 5 5 4 1 2 3 3 6 7
9 9 9 7 6 5 6 7 8 7 6 5 4 3 3 2 2 2 1 3 7 9 10 9 7 8 8 10 11 9 5 7 6 3 1 3 5 5 3 2 2 4 7
9 10 10 10 8 7 6 6 7 7 7 7 6 4 4 3 3 4 4 4 4 3 5 6 6 7 6 7 7 7 6 5 6 5 4 2 1 3 4 4 1 2 3
8 8 8 9 8 8 7 7 7 7 7 8 7 7 8 8 8 7 6 4 3 2 1 2 3 5 4 5 5 7 8 7 6 5 4 5 4 4 4 4 4 3 1
9 8 9 10 10 10 9 8 8 7 7 7 7 8 9 9 10 9 6 5 4 3 1 1 2 3 5 6 5 6 7 9 8 8 5 5 4 5 5 5 4 3 2
9 10 11 10 10 11 10 9 8 8 8 8 7 8 8 6 6 8 8 7 6 5 3 1 3 3 4 4 6 6 7 7 8 8 7 5 5 5 5 6 6 4 2
10 10 10 10 10 11 11 10 9 8 8 8 8 7 7 7 8 8 7 7 7 6 7 5 5 6 6 6 6 6 7 7 7 7 8 6 5 5 6 8 10 8 6
9 9 10 11 10 11 10 9 9 8 7 8 8 7 8 8 8 8 8 6 5 4 5 6 7 8 8 8 8 6 7 8 7 6 7 7 6 5 5 6 7 5 6
11 10 9 10 9 9 9 8 7 6 6 7 8 8 8 8 9 8 8 8 7 8 8 8 8 8 7 7 7 8 8 9 8 7 8 8 8 7 6 6 7 6 5
11 10 9 9 9 9 9 8 7 6 6 7 6 7 7 8 9 9 9 9 9 8 8 7 8 7 6 6 7 7 8 9 10 10 9 9 8 10 8 8 9 7 5
10 9 9 9 10 10 9 9 8 8 7 6 6 5 6 7 8 9 9 8 7 5 4 5 5 6 6 7 7 7 8 9 11 10 10 10 9 10 8 9 9 8 7
12 12 11 10 10 10 11 11 10 9 8 7 7 7 6 6 7 6 6 5 4 3 4 3 4 5 7 8 8 8 9 10 10 9 10 10 11 11 11 10 10 9 8
10 13 13 11 10 11 12 12 11 10 10 9 9 9 7 7 6 6 6 5 4 5 4 3 3 3 5 7 8 8 9 9 8 8 9 10 13 14 13 11 10 11 10
12 13 12 11 11 12 13 13 11 11 11 11 11 9 8 8 8 8 7 6 5 4 3 2 2 3 4 6 11 10 8 8 8 8 8 9 11 14 17 16 18 18 16
8 7 6 6 7 8 10 12 12 11 12 13 12 11 10 10 9 8 7 6 5 3 2 2 2 3 5 6 8 12 7 7 8 8 7 6 7 10 10 14 20 21 23
7 6 6 5 3 1 4 7 8 10 12 12 12 12 11 11 10 9 9 7 5 4 3 3 3 3 5 6 6 7 6 6 7 8 8 7 7 7 9 8 10 11 14
8 7 7 6 5 6 3 4 4 6 9 10 10 11 12 12 11 11 9 7 5 4 4 3 4 4 5 6 5 7 5 5 6 6 7 8 7 10 11 8 9 10 9
8 8 7 7 7 6 6 8 6 4 3 6 8 10 12 13 12 10 8 5 4 5 4 5 5 5 5 6 7 8 5 5 5 5 7 10 10 11 13 9 9 11 10
9 8 8 7 6 5 8 9 8 6 3 2 2 5 7 8 9 8 6 5 5 5 5 5 4 4 4 6 8 10 5 6 6 6 5 5 11 12 12 10 8 10 9
8 8 7 6 5 6 9 8 6 3 5 5 5 4 4 5 6 7 6 6 7 6 5 4 4 3 3 4 7 10 8 7 6 5 5 5 9 11 12 8 7 7 7
7 5 6 5 3 4 7 7 4 5 6 5 3 3 4 4 4 5 6 5 5 4 4 4 4 3 3 4 7 9 10 10 5 4 7 7 7 9 8 9 10 8 5
6 6 5 4 2 3 3 5 5 5 5 4 3 2 3 3 2 3 5 5 5 4 4 4 4 4 3 3 3 4 5 8 6 5 7 7 5 3 4 6 6 4 5
6 6 6 5 5 5 4 3 3 4 4 3 3 3 3 3 3 3 2 3 4 5 5 4 4 4 4 6 9 8 7 6 7 7 4 3 3 2 2 3 3 3 4
7 5 5 5 4 3 4 4 4 5 4 3 3 2 2 2 3 4 4 8 4 5 6 5 3 1 2 5 10 12 11 12 14 7 4 4 5 5 5 5 4 4 4
Wind_Direction
107 87 74 102 123 138 147 156 160 164 155 154 161 174 200 209 205 217 206 175 166 174 156 137 146 156 160 160 146 129 144 124 115 97 66 24 26 52 65 81 93 95 97
127 109 93 105 135 152 161 161 169 168 167 164 157 155 172 193 202 209 194 172 164 160 149 144 150 153 146 137 137 140 142 144 152 134 113 70 11 360 20 59 100 100 100
153 148 141 139 147 157 165 174 181 183 180 173 137 86 77 52 82 123 186 165 149 149 149 150 145 147 149 154 157 165 159 161 184 162 140 147 181 206 7 21 78 104 101
155 156 153 157 168 173 162 160 177 192 197 188 191 177 159 172 160 152 211 134 134 146 157 157 152 153 158 168 178 174 165 156 172 195 174 150 153 146 143 43 37 95 109
171 171 165 165 169 167 168 172 178 194 197 198 199 171 151 141 122 107 86 91 102 122 155 160 153 159 161 180 188 173 173 170 174 175 160 138 126 124 135 153 161 61 73
197 188 167 159 165 169 174 175 181 195 192 190 181 164 159 149 137 118 107 110 116 98 107 180 169 161 157 175 195 191 194 196 194 191 171 164 161 173 147 147 154 134 108
193 187 174 172 171 174 179 176 175 185 188 188 183 173 173 167 153 141 138 140 128 104 55 171 198 184 184 184 181 194 208 202 200 201 199 189 190 163 142 131 140 132 141
189 190 186 181 177 178 179 176 175 179 182 187 191 184 180 165 142 144 154 156 148 149 167 194 242 234 217 209 188 189 199 195 202 202 195 194 202 176 155 151 147 136 146
192 192 186 180 177 177 180 181 178 182 182 182 180 179 176 158 150 154 160 159 160 164 165 183 221 232 223 217 196 198 199 191 198 199 190 190 195 191 178 164 160 152 166
197 190 181 179 180 181 184 185 187 191 187 178 178 181 181 169 161 160 163 164 169 179 188 203 219 222 217 210 201 201 205 205 212 207 200 189 183 187 174 169 162 145 148
198 191 185 179 172 171 176 181 187 189 194 189 181 181 186 178 168 171 175 177 186 194 209 217 226 228 228 227 221 213 203 207 217 218 207 196 174 180 179 172 166 152 139
195 185 178 172 166 166 169 168 166 171 191 194 185 180 177 175 178 185 189 190 190 195 206 211 215 222 226 227 219 217 206 207 214 216 203 199 184 179 182 178 180 173 151
184 174 172 177 177 172 170 169 167 168 173 175 171 163 159 168 184 192 194 194 191 200 213 212 216 226 232 228 213 205 205 212 218 209 199 199 188 185 181 181 179 179 170
180 179 185 190 188 180 177 178 179 174 171 171 171 174 174 171 181 192 199 203 204 223 238 236 231 233 235 231 221 209 211 215 215 205 199 199 197 192 184 184 178 170 163
184 189 195 198 195 187 186 186 186 181 176 179 189 194 189 184 188 206 217 218 217 221 219 205 214 231 229 225 215 205 206 206 205 200 199 203 202 195 188 187 181 170 163
195 201 205 204 202 197 194 195 194 189 184 190 203 200 186 187 196 206 211 213 213 206 190 199 238 259 253 242 221 206 202 199 200 201 201 208 206 203 197 193 187 178 171
182 189 200 205 213 216 207 204 203 191 193 201 205 199 191 190 197 197 194 198 197 188 192 226 252 270 276 268 243 223 204 195 193 188 180 186 183 184 191 200 194 190 183
128 118 108 95 74 112 200 204 196 190 198 202 199 195 192 194 189 186 191 192 186 195 218 254 271 276 275 252 234 209 181 174 178 173 170 168 162 164 165 171 184 191 192
128 119 112 100 61 37 52 117 155 187 199 202 194 192 191 192 188 191 193 187 185 202 217 232 246 254 264 243 197 147 138 142 151 158 161 167 172 182 168 158 168 181 194
107 106 99 85 63 40 63 79 87 109 184 211 201 193 192 191 190 190 186 183 189 212 230 233 231 234 246 240 203 155 141 149 151 154 175 181 175 175 173 173 174 185 192
109 101 87 73 61 70 81 74 70 70 72 89 136 182 193 192 186 180 174 185 194 206 226 226 227 230 240 248 210 170 160 164 160 162 175 192 174 161 166 173 189 199 185
113 105 97 86 75 92 97 90 85 90 84 79 82 100 137 180 186 172 170 178 179 185 191 199 222 240 250 238 221 189 178 169 165 172 174 180 173 158 153 158 177 181 170
132 130 124 114 100 113 120 122 150 136 109 93 83 86 103 117 146 161 162 163 164 164 178 190 213 236 251 253 232 197 178 169 160 164 167 172 182 172 164 172 180 180 180
149 149 144 155 202 207 168 161 166 144 118 113 114 114 114 118 144 159 159 157 166 172 185 198 210 220 223 224 199 169 157 152 136 126 131 125 136 157 176 181 188 191 203
167 160 170 201 236 241 227 201 159 128 104 96 116 121 124 117 99 93 95 176 185 178 179 201 201 199 219 224 199 177 173 162 145 128 114 119 137 174 210 211 196 187 194
173 178 197 219 252 233 205 180 151 133 119 97 108 125 121 101 100 110 80 51 73 118 135 139 138 168 253 247 207 193 176 158 149 134 154 172 184 199 210 213 206 198 200
Height
1488 1489 1489 1490 1490 1492 1493 1495 1496 1498 1500 1502 1504 1506 1508 1511 1513 1515 1518 1521 1523 1526 1529 1531 1534 1536 1538 1541 1543 1545 1548 1549 1551 1553 1554 1555 1556 1556 1556 1556 1555 1553 1553
1486 1487 1488 1488 1489 1490 1491 1492 1494 1495 1497 1499 1502 1504 1506 1508 1510 1512 1515 1518 1521 1523 1526 1529 1531 1534 1536 1538 1541 1544 1546 1548 1549 1551 1552 1555 1558 1558 1558 1558 1556 1555 1555
1484 1485 1486 1487 1488 1488 1489 1490 1492 1493 1495 1497 1500 1502 1503 1504 1506 1508 1511 1515 1518 1520 1523 1526 1528 1531 1534 1536 1539 1542 1544 1545 1548 1550 1551 1552 1554 1557 1558 1558 1557 1556 1556
1482 1484 1485 1486 1487 1487 1488 1489 1491 1492 1493 1495 1497 1499 1500 1501 1503 1505 1508 1511 1515 1517 1520 1524 1527 1529 1532 1535 1537 1539 1541 1543 1545 1547 1549 1550 1550 1553 1556 1558 1557 1557 1556
1482 1483 1484 1485 1485 1486 1486 1488 1489 1490 1492 1493 1494 1496 1497 1499 1500 1502 1505 1508 1511 1515 1518 1522 1525 1527 1530 1532 1535 1537 1539 1541 1543 1544 1546 1547 1548 1549 1551 1554 1556 1557 1556
1482 1483 1483 1484 1484 1485 1485 1487 1487 1488 1489 1490 1491 1493 1495 1497 1499 1500 1503 1506 1510 1512 1516 1520 1523 1525 1528 1530 1532 1535 1537 1539 1541 1542 1543 1544 1545 1546 1548 1550 1553 1555 1556
1480 1481 1482 1482 1482 1483 1484 1485 1486 1486 1487 1488 1489 1490 1493 1496 1498 1499 1502 1505 1508 1510 1514 1518 1521 1524 1526 1528 1530 1532 1534 1536 1537 1539 1540 1542 1544 1545 1546 1548 1550 1553 1554
1477 1478 1479 1480 1480 1481 1482 1483 1484 1485 1486 1487 1488 1489 1492 1495 1497 1498 1501 1504 1507 1509 1512 1516 1519 1522 1524 1525 1527 1528 1530 1532 1533 1535 1537 1539 1541 1542 1543 1544 1546 1549 1551
1474 1475 1476 1477 1478 1479 1480 1481 1483 1483 1484 1485 1487 1488 1491 1493 1496 1498 1501 1504 1506 1509 1511 1514 1516 1518 1520 1522 1523 1524 1526 1528 1530 1532 1533 1535 1537 1539 1540 1542 1543 1545 1547
1471 1472 1473 1474 1476 1477 1478 1480 1481 1482 1483 1484 1485 1487 1489 1492 1495 1497 1499 1502 1504 1506 1508 1511 1513 1515 1517 1518 1519 1520 1522 1523 1525 1527 1529 1530 1532 1534 1536 1538 1540 1542 1544
1467 1468 1470 1471 1473 1474 1476 1477 1479 1480 1481 1482 1483 1484 1486 1489 1491 1493 1496 1498 1500 1502 1504 1506 1509 1511 1512 1513 1514 1515 1517 1518 1520 1522 1523 1525 1527 1529 1531 1534 1536 1538 1541
1463 1465 1467 1469 1470 1471 1473 1475 1476 1478 1479 1480 1481 1482 1484 1485 1487 1489 1492 1494 1496 1497 1499 1501 1503 1505 1506 1507 1508 1509 1511 1513 1515 1517 1518 1520 1522 1524 1526 1529 1531 1534 1537
1460 1462 1464 1466 1467 1468 1470 1472 1473 1475 1476 1478 1479 1480 1481 1483 1485 1486 1488 1490 1492 1494 1496 1497 1499 1500 1501 1502 1503 1504 1506 1508 1510 1511 1512 1514 1516 1518 1520 1523 1526 1529 1533
1455 1458 1460 1462 1464 1465 1466 1468 1470 1472 1473 1475 1476 1478 1479 1481 1483 1484 1486 1488 1490 1491 1493 1493 1494 1496 1497 1498 1499 1500 1502 1504 1505 1506 1507 1509 1511 1512 1514 1517 1521 1524 1528
1453 1454 1456 1458 1460 1461 1463 1464 1466 1468 1470 1472 1474 1476 1477 1479 1481 1482 1484 1486 1488 1489 1490 1490 1491 1491 1492 1493 1495 1496 1498 1499 1501 1502 1503 1505 1507 1508 1511 1513 1517 1520 1523
1449 1451 1453 1455 1456 1458 1459 1461 1462 1464 1466 1468 1470 1472 1474 1475 1477 1479 1481 1483 1485 1486 1487 1487 1487 1487 1488 1489 1490 1491 1493 1495 1496 1498 1499 1501 1503 1505 1507 1510 1513 1516 1519
1448 1450 1452 1453 1454 1455 1457 1458 1459 1461 1462 1464 1465 1468 1469 1471 1473 1476 1478 1480 1482 1483 1484 1484 1483 1483 1484 1484 1485 1486 1488 1490 1492 1494 1496 1498 1500 1502 1504 1507 1510 1512 1516
1448 1450 1450 1451 1451 1452 1453 1454 1456 1457 1458 1459 1461 1463 1465 1466 1469 1471 1474 1477 1479 1480 1480 1481 1480 1480 1480 1481 1481 1482 1484 1485 1487 1490 1492 1494 1496 1498 1500 1503 1506 1509 1512
1447 1448 1449 1449 1449 1449 1449 1449 1450 1452 1453 1454 1456 1458 1461 1463 1465 1467 1470 1473 1475 1476 1476 1477 1477 1477 1477 1478 1478 1479 1481 1482 1484 1485 1487 1490 1493 1495 1497 1500 1503 1506 1509
1447 1448 1448 1448 1448 1447 1447 1447 1447 1448 1449 1450 1452 1454 1456 1458 1461 1463 1466 1469 1471 1472 1473 1473 1474 1474 1475 1475 1476 1477 1478 1479 1480 1482 1484 1488 1490 1492 1494 1497 1500 1502 1504
1446 1447 1448 1448 1447 1447 1446 1446 1446 1446 1447 1448 1448 1450 1451 1453 1456 1460 1463 1466 1467 1468 1469 1470 1471 1472 1473 1473 1474 1475 1476 1477 1478 1479 1482 1485 1487 1488 1490 1493 1496 1499 1501
1445 1446 1447 1446 1446 1447 1447 1446 1446 1447 1447 1447 1447 1448 1448 1450 1453 1457 1459 1461 1463 1465 1466 1467 1468 1469 1470 1471 1472 1473 1474 1475 1477 1478 1480 1482 1483 1485 1486 1489 1492 1496 1498
1444 1445 1445 1446 1447 1447 1447 1447 1447 1447 1447 1447 1447 1447 1448 1449 1451 1454 1456 1458 1460 1462 1463 1464 1465 1466 1467 1469 1470 1471 1472 1474 1475 1477 1478 1479 1480 1482 1484 1486 1489 1492 1494
1443 1443 1444 1446 1447 1448 1448 1448 1448 1447 1447 1447 1447 1447 1448 1449 1450 1452 1454 1456 1458 1459 1460 1460 1462 1463 1464 1466 1467 1468 1470 1471 1473 1475 1476 1477 1478 1479 1481 1483 1484 1486 1488
1442 1443 1444 1445 1447 1447 1448 1448 1448 1447 1447 1446 1446 1446 1447 1448 1450 1452 1453 1455 1456 1457 1458 1458 1459 1460 1461 1462 1464 1465 1466 1468 1470 1472 1473 1474 1476 1477 1478 1480 1481 1482 1483
1442 1443 1444 1445 1446 1446 1446 1447 1447 1446 1446 1445 1445 1445 1446 1447 1448 1450 1452 1453 1454 1455 1456 1456 1457 1457 1458 1459 1460 1461 1463 1465 1467 1469 1470 1472 1473 1474 1476 1477 1477 1478 1478